Location: Kuppenheim
(48.8299°N, 8.2568°E)
Time: 14:59:53
(UTC+00:00)

Cosmos 372 Rocket - Pass Details

Date: 20 June 2021
Orbit: 737 x 768 km, 74.1° (Epoch: 04 August)

Event Time Altitude Azimuth Distance (km) Brightness Sun altitude
Rises 01:00:49 0° 335° (NNW) 3,236 7.9 -14.9°
Reaches altitude 10° 01:03:11 10° 334° (NNW) 2,310 7.1 -14.7°
Maximum altitude 01:08:26 76° 250° (WSW) 794 3.9 -14.4°
Enters shadow 01:13:07 13° 166° (SSE) 2,096 5.8 -14.1°
